DYE457 LIRQ-LIPY

Flight info

Callsign DYE457
Flight time 0h 32m
Altitude 20000
Route GAVRA DCT PIDEP/N0296F190 DCT BIDMA
Aircraft TBM9/L-SDFGRWY/S

Departure

Time 2026-04-26 13:26
Airport Florence Airport, Peretola (LIRQ)

Arrival

Time 2026-04-26 13:58
Airport Marche Airport (LIPY)
Time Latitude Longitude Altitude Speed Heading
2026-04-26 13:10 43.80421 11.20054 126 ft 0 kts 86°
2026-04-26 13:21 43.80421 11.20063 126 ft 5 kts 76°
2026-04-26 13:22 43.80460 11.20064 126 ft 6 kts 341°
2026-04-26 13:22 43.80466 11.20061 127 ft 7 kts 339°
2026-04-26 13:22 43.80514 11.20003 130 ft 10 kts 323°
2026-04-26 13:22 43.80589 11.20002 130 ft 12 kts
2026-04-26 13:23 43.80674 11.20032 128 ft 13 kts 19°
2026-04-26 13:23 43.80737 11.20098 132 ft 12 kts 48°
2026-04-26 13:23 43.80794 11.20186 132 ft 14 kts 48°
2026-04-26 13:23 43.80865 11.20295 131 ft 16 kts 48°
2026-04-26 13:24 43.80944 11.20417 132 ft 18 kts 47°
2026-04-26 13:24 43.81014 11.20525 131 ft 14 kts 48°
2026-04-26 13:24 43.81029 11.20614 133 ft 8 kts 82°
2026-04-26 13:24 43.81066 11.20649 134 ft 8 kts 325°
2026-04-26 13:25 43.81066 11.20606 133 ft 0 kts 229°
2026-04-26 13:25 43.80890 11.20332 132 ft 74 kts 230°
2026-04-26 13:26 43.80439 11.19633 366 ft 110 kts 228°
2026-04-26 13:26 43.80072 11.18642 827 ft 128 kts 267°
2026-04-26 13:26 43.80253 11.17385 1408 ft 138 kts 278°
2026-04-26 13:26 43.80374 11.16026 1981 ft 146 kts 274°
2026-04-26 13:27 43.80484 11.14614 2670 ft 150 kts 275°
2026-04-26 13:27 43.80580 11.13190 3291 ft 151 kts 275°
2026-04-26 13:27 43.80684 11.11734 3981 ft 152 kts 275°
2026-04-26 13:27 43.80776 11.10265 4633 ft 154 kts 275°
2026-04-26 13:28 43.80860 11.08783 5274 ft 155 kts 274°
2026-04-26 13:28 43.80962 11.07283 5916 ft 158 kts 276°
2026-04-26 13:28 43.81070 11.05667 6132 ft 184 kts 275°
2026-04-26 13:28 43.81213 11.03762 6144 ft 211 kts 279°
2026-04-26 13:29 43.81855 11.01879 6151 ft 227 kts 313°
2026-04-26 13:29 43.82715 11.01029 6148 ft 234 kts 336°
2026-04-26 13:29 43.84852 11.00958 6143 ft 241 kts 21°
2026-04-26 13:29 43.86176 11.02355 6145 ft 244 kts 54°
2026-04-26 13:30 43.86750 11.04541 6142 ft 245 kts 87°
2026-04-26 13:30 43.86386 11.06817 6146 ft 245 kts 119°
2026-04-26 13:30 43.85310 11.08576 6396 ft 236 kts 135°
2026-04-26 13:30 43.84212 11.10233 6648 ft 231 kts 129°
2026-04-26 13:31 43.83382 11.12100 6960 ft 226 kts 116°
2026-04-26 13:31 43.83177 11.12744 7065 ft 224 kts 113°
2026-04-26 13:31 43.82224 11.16060 7627 ft 222 kts 113°
2026-04-26 13:31 43.81606 11.18031 7971 ft 224 kts 114°
2026-04-26 13:32 43.81026 11.20048 8312 ft 227 kts 105°
2026-04-26 13:32 43.80859 11.22236 8658 ft 230 kts 94°
2026-04-26 13:32 43.80751 11.24447 9018 ft 231 kts 95°
2026-04-26 13:32 43.80625 11.26671 9379 ft 232 kts 95°
2026-04-26 13:33 43.80511 11.28908 9745 ft 233 kts 95°
2026-04-26 13:33 43.80393 11.31157 10099 ft 235 kts 95°
2026-04-26 13:33 43.80276 11.33413 10433 ft 235 kts 94°
2026-04-26 13:33 43.80161 11.35679 10767 ft 235 kts 95°
2026-04-26 13:34 43.80043 11.37914 11091 ft 236 kts 94°
2026-04-26 13:34 43.79918 11.40241 11130 ft 249 kts 95°
2026-04-26 13:34 43.79787 11.42670 11128 ft 257 kts 95°
2026-04-26 13:34 43.79694 11.44315 11133 ft 260 kts 95°
2026-04-26 13:35 43.79514 11.47685 11138 ft 265 kts 95°
2026-04-26 13:35 43.79375 11.50231 11134 ft 266 kts 95°
2026-04-26 13:35 43.79241 11.52787 11131 ft 266 kts 94°
2026-04-26 13:35 43.79105 11.55339 11131 ft 266 kts 95°
2026-04-26 13:36 43.78962 11.57900 11123 ft 267 kts 95°
2026-04-26 13:36 43.78821 11.60456 11125 ft 266 kts 95°
2026-04-26 13:36 43.78678 11.63013 11121 ft 267 kts 95°
2026-04-26 13:36 43.78534 11.65576 11129 ft 268 kts 94°
2026-04-26 13:37 43.78396 11.68153 11122 ft 268 kts 95°
2026-04-26 13:37 43.78261 11.70724 11119 ft 268 kts 94°
2026-04-26 13:37 43.78109 11.73292 11115 ft 268 kts 95°
2026-04-26 13:37 43.77961 11.75859 11110 ft 267 kts 95°
2026-04-26 13:38 43.77822 11.78386 11107 ft 266 kts 95°
2026-04-26 13:38 43.77677 11.80947 11108 ft 267 kts 95°
2026-04-26 13:38 43.77686 11.83507 11100 ft 266 kts 82°
2026-04-26 13:38 43.77993 11.86030 11105 ft 266 kts 82°
2026-04-26 13:39 43.78254 11.88563 11104 ft 266 kts 83°
2026-04-26 13:39 43.78511 11.91098 11153 ft 264 kts 82°
2026-04-26 13:39 43.78781 11.93565 11449 ft 255 kts 82°
2026-04-26 13:39 43.79048 11.95973 11745 ft 251 kts 82°
2026-04-26 13:40 43.79298 11.98350 12042 ft 248 kts 82°
2026-04-26 13:40 43.79552 12.00709 12344 ft 247 kts 82°
2026-04-26 13:40 43.79797 12.03058 12640 ft 246 kts 82°
2026-04-26 13:40 43.80044 12.05407 12951 ft 246 kts 82°
2026-04-26 13:41 43.80209 12.06961 13153 ft 246 kts 81°
2026-04-26 13:41 43.80459 12.09300 13473 ft 245 kts 81°
2026-04-26 13:41 43.80706 12.11640 13783 ft 246 kts 82°
2026-04-26 13:41 43.81028 12.14745 14167 ft 246 kts 81°
2026-04-26 13:42 43.81275 12.17095 14447 ft 247 kts 81°
2026-04-26 13:42 43.81443 12.18690 14640 ft 248 kts 81°
2026-04-26 13:42 43.81660 12.21059 14932 ft 249 kts 86°
2026-04-26 13:42 43.81471 12.23416 15238 ft 251 kts 102°
2026-04-26 13:43 43.81036 12.25768 15530 ft 253 kts 103°
2026-04-26 13:43 43.80618 12.28142 15819 ft 254 kts 102°
2026-04-26 13:43 43.80199 12.30519 16124 ft 256 kts 103°
2026-04-26 13:43 43.79767 12.32914 16421 ft 257 kts 103°
2026-04-26 13:44 43.79333 12.35319 16722 ft 258 kts 102°
2026-04-26 13:44 43.78901 12.37734 17032 ft 258 kts 102°
2026-04-26 13:44 43.78464 12.40159 17345 ft 260 kts 102°
2026-04-26 13:44 43.78026 12.42592 17661 ft 261 kts 102°
2026-04-26 13:45 43.77584 12.45035 17973 ft 262 kts 102°
2026-04-26 13:45 43.77142 12.47484 18296 ft 263 kts 102°
2026-04-26 13:45 43.76698 12.49941 18587 ft 264 kts 102°
2026-04-26 13:45 43.76251 12.52413 18862 ft 265 kts 102°
2026-04-26 13:46 43.75800 12.54890 19097 ft 268 kts 102°
2026-04-26 13:46 43.75337 12.57440 19099 ft 278 kts 102°
2026-04-26 13:46 43.74855 12.60072 19107 ft 286 kts 102°
2026-04-26 13:46 43.74369 12.62727 19111 ft 290 kts 103°
2026-04-26 13:47 43.73869 12.65452 19113 ft 293 kts 102°
2026-04-26 13:47 43.73369 12.68198 19114 ft 295 kts 102°
2026-04-26 13:47 43.72864 12.70960 19113 ft 297 kts 103°
2026-04-26 13:47 43.72352 12.73740 18847 ft 299 kts 103°
2026-04-26 13:48 43.71838 12.76525 18477 ft 298 kts 103°
2026-04-26 13:48 43.71326 12.79303 17996 ft 298 kts 103°
2026-04-26 13:48 43.70825 12.82039 17484 ft 290 kts 103°
2026-04-26 13:48 43.70334 12.84722 16939 ft 286 kts 103°
2026-04-26 13:49 43.69846 12.87370 16401 ft 283 kts 103°
2026-04-26 13:49 43.69360 12.89986 15861 ft 277 kts 103°
2026-04-26 13:49 43.68884 12.92544 15314 ft 272 kts 103°
2026-04-26 13:49 43.68420 12.95058 14781 ft 268 kts 103°
2026-04-26 13:50 43.67962 12.97540 14253 ft 265 kts 103°
2026-04-26 13:50 43.67381 12.99938 13730 ft 263 kts 119°
2026-04-26 13:50 43.66131 13.01700 13189 ft 263 kts 149°
2026-04-26 13:50 43.64422 13.02566 12636 ft 262 kts 165°
2026-04-26 13:51 43.62645 13.03167 12086 ft 262 kts 166°
2026-04-26 13:51 43.60878 13.03730 11530 ft 260 kts 167°
2026-04-26 13:51 43.59111 13.04288 10994 ft 259 kts 167°
2026-04-26 13:51 43.57393 13.04986 10450 ft 257 kts 153°
2026-04-26 13:52 43.56060 13.06519 9879 ft 248 kts 126°
2026-04-26 13:52 43.55195 13.08551 9292 ft 244 kts 117°
2026-04-26 13:52 43.54442 13.10629 8730 ft 241 kts 117°
2026-04-26 13:52 43.53679 13.12682 8172 ft 240 kts 118°
2026-04-26 13:53 43.52895 13.14681 7633 ft 239 kts 120°
2026-04-26 13:53 43.52065 13.16673 7097 ft 239 kts 122°
2026-04-26 13:53 43.51381 13.18742 6545 ft 238 kts 103°
2026-04-26 13:53 43.51331 13.20903 5968 ft 217 kts 84°
2026-04-26 13:54 43.51830 13.22793 5388 ft 208 kts 61°
2026-04-26 13:54 43.52602 13.24461 4805 ft 207 kts 48°
2026-04-26 13:54 43.53537 13.25844 4569 ft 183 kts 46°
2026-04-26 13:55 43.54827 13.27476 3893 ft 108 kts 31°
2026-04-26 13:55 43.55232 13.27884 3537 ft 107 kts 36°
2026-04-26 13:55 43.56556 13.29416 2618 ft 105 kts 41°
2026-04-26 13:56 43.57059 13.30115 2237 ft 99 kts 44°
2026-04-26 13:56 43.57561 13.30775 1719 ft 97 kts 40°
2026-04-26 13:56 43.58074 13.31359 1230 ft 93 kts 41°
2026-04-26 13:56 43.58528 13.31949 923 ft 89 kts 46°
2026-04-26 13:57 43.58952 13.32564 667 ft 90 kts 50°
2026-04-26 13:57 43.59377 13.33136 490 ft 81 kts 45°
2026-04-26 13:57 43.59765 13.33674 383 ft 76 kts 48°
2026-04-26 13:57 43.60134 13.34182 272 ft 71 kts 45°
2026-04-26 13:58 43.60475 13.34639 158 ft 68 kts 44°
2026-04-26 13:58 43.60805 13.35097 68 ft 63 kts 44°
2026-04-26 13:58 43.61091 13.35487 50 ft 50 kts 44°
2026-04-26 13:58 43.61203 13.35641 48 ft 17 kts 43°
2026-04-26 13:59 43.61300 13.35773 43 ft 24 kts 44°
2026-04-26 13:59 43.61406 13.35918 43 ft 16 kts 43°
2026-04-26 13:59 43.61419 13.36007 43 ft 6 kts 135°
2026-04-26 14:00 43.61296 13.36088 45 ft 10 kts 224°
2026-04-26 14:00 43.61237 13.36008 46 ft 13 kts 224°
2026-04-26 14:00 43.61203 13.35964 46 ft 8 kts 219°
2026-04-26 14:01 43.61174 13.35974 45 ft 0 kts 137°